sat.trackr.live / text

‹ back to catalog

ONEWEB-0201

NORAD 48241 · 2021-031AH

PAYLOAD ACTIVE UNKNOWN

§ Identity

Operator
Country
UK
Launch date
2021-04-25
Launch site
VOSTO
Launch vehicle
Mass (kg)
RCS (m²)

Purposes: comms

External: N2YO · Heavens-Above · Gunter

§ Orbital elements

Epoch: 2026-05-24T19:55:12.026784Z

Period
109.55 min
Inclination
87.8940°
Eccentricity
0.0002060
Mean motion
13.14503426 rev/d
Perigee alt
1,204.2 km
Apogee alt
1,207.4 km
Semi-major
7,583.9 km
B*
-7.0666e-4
RAAN
294.3726°
Arg perigee
104.4506°
Mean anomaly
255.6853°
Rev number
24,531

§ Raw data

ONEWEB-02011 48241U 21031AH  26144.83000031 -.00000249  00000+0 -70666-3 0  99922 48241  87.8940 294.3726 0002060 104.4506 255.6853 13.14503426245316

JSON: /api/v1/satellites/48241 · /tle

For live sub-satellite position, see the globe view (requires WebGL).

§ Visibility from observer

Set your observer location to see the next 7 days of passes ≥ 10°. The values pass through the URL so the page stays shareable.

No JS? Fill the form by hand. The geolocation button needs JavaScript.